SWA1157 KMCO-KCMH

Flight info

Callsign SWA1157
Flight time N/A
Altitude 40000
Route JEEMY4 PAINN SHRKS Q77 TEUFL/N0452F390 Q77 WIGVO IRQ BURGG MCGNS SCRLT2
Aircraft B38M/M-SDE1FGHILORVWXY/HB1

Departure

Time 2026-04-23 00:08
Airport Orlando International Airport (KMCO)

Arrival

Time N/A
Airport John Glenn Columbus International Airport (KCMH)
Time Latitude Longitude Altitude Speed Heading
2026-04-22 23:48 28.43508 -81.30381 103 ft 0 kts 74°
2026-04-22 23:59 28.43508 -81.30382 103 ft 2 kts 74°
2026-04-23 00:00 28.43500 -81.30418 103 ft 2 kts 75°
2026-04-23 00:00 28.43495 -81.30435 101 ft 2 kts 60°
2026-04-23 00:00 28.43483 -81.30445 102 ft 2 kts
2026-04-23 00:01 28.43471 -81.30435 102 ft 2 kts 302°
2026-04-23 00:01 28.43465 -81.30425 101 ft 1 kts 305°
2026-04-23 00:01 28.43464 -81.30424 102 ft 0 kts 305°
2026-04-23 00:04 28.43465 -81.30425 101 ft 1 kts 305°
2026-04-23 00:04 28.43473 -81.30435 102 ft 3 kts 313°
2026-04-23 00:05 28.43519 -81.30458 102 ft 13 kts 359°
2026-04-23 00:05 28.43628 -81.30398 103 ft 22 kts 46°
2026-04-23 00:05 28.43719 -81.30267 102 ft 16 kts 51°
2026-04-23 00:05 28.43795 -81.30158 103 ft 20 kts 51°
2026-04-23 00:06 28.43823 -81.30020 104 ft 18 kts 99°
2026-04-23 00:06 28.43762 -81.29918 103 ft 17 kts 145°
2026-04-23 00:06 28.43659 -81.29890 104 ft 17 kts 174°
2026-04-23 00:06 28.43561 -81.29862 105 ft 12 kts 124°
2026-04-23 00:07 28.43551 -81.29790 106 ft 10 kts 86°
2026-04-23 00:07 28.43553 -81.29703 106 ft 12 kts 90°
2026-04-23 00:07 28.43549 -81.29618 106 ft 11 kts 114°
2026-04-23 00:07 28.43490 -81.29588 106 ft 10 kts 174°
2026-04-23 00:08 28.43410 -81.29586 109 ft 27 kts 179°
2026-04-23 00:08 28.42923 -81.29579 108 ft 111 kts 179°
2026-04-23 00:08 28.42292 -81.29570 103 ft 159 kts 179°
2026-04-23 00:08 28.41081 -81.29539 748 ft 175 kts 174°
2026-04-23 00:09 28.40544 -81.29513 1322 ft 163 kts 172°
2026-04-23 00:09 28.40035 -81.29492 1856 ft 162 kts 172°
2026-04-23 00:09 28.39256 -81.29449 2343 ft 172 kts 171°
2026-04-23 00:09 28.38151 -81.29050 2751 ft 191 kts 146°
2026-04-23 00:10 28.37673 -81.28719 2950 ft 201 kts 145°
2026-04-23 00:10 28.37156 -81.28357 3212 ft 209 kts 146°